• In Kazakhstan
  • List of Countries
  • For 7 days
  • Water Temperature
  • Weather Map
  • News
  • Weather Widgets
  • user-avatar
    Login

    Hourly Weather Campo Grande

    Today, 5 December, Thursday

    Time Temperature Precipitation Wind Pressure Humidity
    00:00 +26°C° 0 mm 2 mps 707 mmHg 74%
    01:00 +26°C° 0 mm 2 mps 707 mmHg 75%
    02:00 +26°C° 0 mm 3 mps 707 mmHg 76%
    03:00 +25°C° 0.1 mm 3 mps 707 mmHg 78%
    04:00 +25°C° 0.1 mm 3 mps 707 mmHg 80%
    05:00 +24°C° 0.1 mm 3 mps 707 mmHg 82%
    06:00 +26°C° 0.5 mm 3 mps 708 mmHg 79%
    07:00 +27°C° 0.5 mm 4 mps 708 mmHg 76%
    08:00 +28°C° 0 mm 6 mps 709 mmHg 78%
    09:00 +28°C° 1 mm 6 mps 709 mmHg 74%
    10:00 +29°C° 1 mm 6 mps 709 mmHg 71%
    11:00 +30°C° 1 mm 7 mps 708 mmHg 67%
    12:00 +30°C° 1.5 mm 6 mps 708 mmHg 69%
    13:00 +30°C° 1.5 mm 6 mps 708 mmHg 71%
    14:00 +29°C° 1.5 mm 6 mps 707 mmHg 73%
    15:00 +29°C° 0.7 mm 5 mps 707 mmHg 76%
    16:00 +28°C° 0.7 mm 4 mps 707 mmHg 78%
    17:00 +28°C° 0.7 mm 3 mps 707 mmHg 80%
    18:00 +27°C° 0 mm 3 mps 707 mmHg 83%
    19:00 +25°C° 0 mm 3 mps 707 mmHg 86%
    20:00 +24°C° 0 mm 3 mps 708 mmHg 88%
    21:00 +24°C° 0 mm 3 mps 708 mmHg 89%
    22:00 +24°C° 0 mm 2 mps 708 mmHg 90%
    23:00 +23°C° 0 mm 1 mps 708 mmHg 91%

    Tomorrow, 6 December, Friday

    Time Temperature Precipitation Wind Pressure Humidity
    00:00 +23°C° 0 mm 1 mps 708 mmHg 91%
    01:00 +23°C° 0 mm 1 mps 707 mmHg 90%
    02:00 +23°C° 0 mm 1 mps 707 mmHg 90%
    03:00 +22°C° 0 mm 1 mps 707 mmHg 91%
    04:00 +22°C° 0 mm 1 mps 707 mmHg 91%
    05:00 +22°C° 0 mm 1 mps 708 mmHg 92%
    06:00 +23°C° 0 mm 2 mps 708 mmHg 82%
    07:00 +25°C° 0 mm 2 mps 709 mmHg 72%
    08:00 +26°C° 0 mm 3 mps 709 mmHg 62%
    09:00 +28°C° 0 mm 2 mps 709 mmHg 58%
    10:00 +29°C° 0 mm 2 mps 709 mmHg 54%
    11:00 +31°C° 0 mm 1 mps 709 mmHg 50%
    12:00 +31°C° 0 mm 1 mps 709 mmHg 49%
    13:00 +31°C° 0 mm 2 mps 708 mmHg 48%
    14:00 +32°C° 0 mm 2 mps 708 mmHg 47%
    15:00 +31°C° 0 mm 2 mps 707 mmHg 49%
    16:00 +30°C° 0 mm 2 mps 707 mmHg 52%
    17:00 +30°C° 0 mm 2 mps 707 mmHg 54%
    18:00 +28°C° 0 mm 2 mps 707 mmHg 57%
    19:00 +27°C° 0 mm 2 mps 708 mmHg 59%
    20:00 +26°C° 0 mm 3 mps 708 mmHg 61%
    21:00 +25°C° 0 mm 3 mps 708 mmHg 62%
    22:00 +24°C° 0 mm 3 mps 708 mmHg 63%
    23:00 +24°C° 0 mm 3 mps 708 mmHg 64%

    Day after tomorrow, 7 December, Saturday

    Time Temperature Precipitation Wind Pressure Humidity
    00:00 +22°C° 0 mm 3 mps 708 mmHg 65%
    01:00 +22°C° 0 mm 3 mps 707 mmHg 66%
    02:00 +21°C° 0 mm 3 mps 707 mmHg 66%
    03:00 +21°C° 0 mm 2 mps 707 mmHg 66%
    04:00 +21°C° 0 mm 2 mps 707 mmHg 66%
    05:00 +20°C° 0 mm 2 mps 708 mmHg 66%
    06:00 +23°C° 0 mm 2 mps 708 mmHg 60%
    07:00 +25°C° 0 mm 3 mps 709 mmHg 54%
    08:00 +27°C° 0 mm 3 mps 710 mmHg 48%
    09:00 +28°C° 0 mm 3 mps 709 mmHg 44%
    10:00 +30°C° 0 mm 3 mps 709 mmHg 40%
    11:00 +31°C° 0 mm 2 mps 709 mmHg 35%
    12:00 +33°C° 0 mm 3 mps 709 mmHg 35%
    13:00 +33°C° 0 mm 3 mps 708 mmHg 34%
    14:00 +33°C° 0 mm 3 mps 707 mmHg 34%
    15:00 +31°C° 0 mm 3 mps 707 mmHg 38%
    16:00 +30°C° 0 mm 3 mps 706 mmHg 42%
    17:00 +29°C° 0 mm 3 mps 706 mmHg 46%
    18:00 +28°C° 0 mm 3 mps 706 mmHg 45%
    19:00 +26°C° 0 mm 3 mps 706 mmHg 45%
    20:00 +25°C° 0 mm 3 mps 707 mmHg 45%
    21:00 +24°C° 0 mm 3 mps 707 mmHg 47%
    22:00 +24°C° 0 mm 3 mps 707 mmHg 49%
    23:00 +22°C° 0 mm 3 mps 707 mmHg 51%

    8 December, Sunday

    Time Temperature Precipitation Wind Pressure Humidity
    00:00 +22°C° 0 mm 3 mps 707 mmHg 50%
    01:00 +23°C° 0 mm 2 mps 707 mmHg 50%
    02:00 +23°C° 0 mm 2 mps 706 mmHg 50%
    03:00 +21°C° 0 mm 2 mps 707 mmHg 50%
    04:00 +21°C° 0 mm 2 mps 707 mmHg 51%
    05:00 +21°C° 0 mm 2 mps 707 mmHg 51%
    06:00 +24°C° 0 mm 2 mps 708 mmHg 49%
    07:00 +26°C° 0 mm 3 mps 708 mmHg 46%
    08:00 +28°C° 0 mm 3 mps 709 mmHg 44%
    09:00 +30°C° 0 mm 3 mps 709 mmHg 42%
    10:00 +31°C° 0 mm 3 mps 709 mmHg 40%
    11:00 +33°C° 0 mm 3 mps 708 mmHg 38%
    12:00 +34°C° 0 mm 3 mps 708 mmHg 36%
    13:00 +35°C° 0 mm 2 mps 707 mmHg 34%
    14:00 +36°C° 0 mm 2 mps 706 mmHg 31%
    15:00 +35°C° 0 mm 2 mps 706 mmHg 35%
    16:00 +34°C° 0 mm 2 mps 706 mmHg 39%
    17:00 +33°C° 0 mm 3 mps 706 mmHg 43%
    18:00 +30°C° 0 mm 3 mps 706 mmHg 46%
    19:00 +29°C° 0 mm 3 mps 707 mmHg 50%
    20:00 +27°C° 0 mm 2 mps 707 mmHg 53%
    21:00 +27°C° 0 mm 2 mps 707 mmHg 53%
    22:00 +27°C° 0 mm 2 mps 707 mmHg 53%
    23:00 +26°C° 0 mm 2 mps 707 mmHg 53%

    9 December, Monday

    Time Temperature Precipitation Wind Pressure Humidity
    00:00 +26°C° 0 mm 3 mps 707 mmHg 52%
    01:00 +26°C° 0 mm 3 mps 707 mmHg 51%
    02:00 +26°C° 0 mm 4 mps 707 mmHg 50%
    03:00 +26°C° 0 mm 3 mps 707 mmHg 55%
    04:00 +25°C° 0 mm 3 mps 707 mmHg 59%
    05:00 +25°C° 0 mm 3 mps 707 mmHg 64%
    06:00 +26°C° 0 mm 3 mps 707 mmHg 63%
    07:00 +27°C° 0 mm 3 mps 708 mmHg 63%
    08:00 +28°C° 0 mm 3 mps 709 mmHg 62%
    09:00 +30°C° 0 mm 2 mps 709 mmHg 55%
    10:00 +32°C° 0 mm 2 mps 709 mmHg 48%
    11:00 +34°C° 0 mm 1 mps 709 mmHg 40%
    12:00 +33°C° 0 mm 1 mps 708 mmHg 42%
    13:00 +33°C° 0 mm 1 mps 707 mmHg 43%
    14:00 +32°C° 0 mm 1 mps 707 mmHg 44%
    15:00 +31°C° 0 mm 1 mps 706 mmHg 48%
    16:00 +30°C° 0 mm 1 mps 706 mmHg 51%
    17:00 +29°C° 0 mm 1 mps 706 mmHg 55%
    18:00 +29°C° 0 mm 1 mps 706 mmHg 56%
    19:00 +28°C° 0 mm 1 mps 707 mmHg 57%
    20:00 +28°C° 0 mm 1 mps 707 mmHg 57%
    21:00 +27°C° 0 mm 1 mps 707 mmHg 60%
    22:00 +26°C° 0 mm 1 mps 707 mmHg 62%
    23:00 +26°C° 0 mm 1 mps 707 mmHg 65%

    10 December, Tuesday

    Time Temperature Precipitation Wind Pressure Humidity
    00:00 +23°C° 0 mm 0 mps 707 mmHg 67%
    01:00 +23°C° 0 mm 0 mps 707 mmHg 68%
    02:00 +22°C° 0 mm 0 mps 706 mmHg 70%
    03:00 +22°C° 0 mm 0 mps 706 mmHg 72%
    04:00 +22°C° 0 mm 0 mps 706 mmHg 74%
    05:00 +21°C° 0 mm 0 mps 706 mmHg 76%
    06:00 +23°C° 0 mm 0 mps 707 mmHg 70%
    07:00 +25°C° 0 mm 0 mps 708 mmHg 65%
    08:00 +30°C° 0 mm 1 mps 708 mmHg 59%
    09:00 +31°C° 0.1 mm 1 mps 708 mmHg 54%
    10:00 +32°C° 0.1 mm 1 mps 708 mmHg 49%
    11:00 +35°C° 0.1 mm 2 mps 708 mmHg 45%
    12:00 +35°C° 0.2 mm 2 mps 708 mmHg 44%
    13:00 +34°C° 0.2 mm 1 mps 707 mmHg 43%
    14:00 +34°C° 0.2 mm 1 mps 706 mmHg 43%
    15:00 +34°C° 0 mm 2 mps 706 mmHg 47%
    16:00 +32°C° 0 mm 2 mps 706 mmHg 50%
    17:00 +31°C° 0 mm 2 mps 706 mmHg 54%
    18:00 +29°C° 0.2 mm 2 mps 706 mmHg 60%
    19:00 +28°C° 0.2 mm 2 mps 706 mmHg 66%
    20:00 +27°C° 0.2 mm 2 mps 706 mmHg 71%
    21:00 +26°C° 0.3 mm 2 mps 707 mmHg 76%
    22:00 +25°C° 0.3 mm 2 mps 707 mmHg 81%
    23:00 +24°C° 0.3 mm 2 mps 707 mmHg 85%
    Show more